Tracking 23757 objects as of 26-Oct-2021
HD Live streaming from Space Station
objects crossing your sky now

COSMOS 1375 DEB

Track COSMOS 1375 DEB now!
10-day predictions


NORAD ID: 18415
Int'l Code: 1982-055BE
Perigee: 947.7 km
Apogee: 1,061.7 km
Inclination: 65.8 °
Period: 105.1 minutes
Semi major axis: 7375 km
RCS: 0.0876 m2 (small)
Launch date: June 6, 1982
Source: Commonwealth of Independent States (former USSR) (CIS)
Launch site: PLESETSK MISSILE AND SPACE COMPLEX (PKMTR)

Note: This is SATELLITE DEBRIS
aabbcc
Your satellite tracking list
Your tracking list is empty




NASA's NSSDC Master Catalog

Two Line Element Set (TLE):
1 18415U 82055BE  21299.48357816  .00000254  00000-0  36863-3 0  9994
2 18415  65.8287  69.3984 0077314 219.1014 217.4417 13.70556682794634
Source of the keplerian elements: AFSPC